Tracking 19854 objects as of 23-Sep-2019
HD Live streaming from Space Station
objects crossing your sky now

COSMOS 1717

Track COSMOS 1717 now!
10-day predictions
COSMOS 1717 is classified as:


NORAD ID: 16450
Int'l Code: 1986-002B
Perigee: 1,482.4 km
Apogee: 1,520.1 km
Inclination: 74.0 °
Period: 115.9 minutes
Semi major axis: 7872 km
RCS: 0.7102 m2 (medium)
Launch date: January 9, 1986
Source: Commonwealth of Independent States (former USSR) (CIS)
Launch site: PLESETSK MISSILE AND SPACE COMPLEX (PKMTR)
aabbcc
Your satellite tracking list
Your tracking list is empty




NASA's NSSDC Master Catalog

Two Line Element Set (TLE):
1 16450U 86002B   19265.28528747 -.00000019  00000-0 -20683-4 0  9993
2 16450  73.9904 177.4348 0023935  22.6509 122.2261 12.42953697529370
Source of the keplerian elements: AFSPC